Weather History for Marysville, OH

Change the Weather History Date:

Monday, November 12, 2012

  Actual Average (KDLZ) Record (KDLZ)
Temperature  
Mean Temperature 45 °F -  
Max Temperature 60 °F 48 °F 72 °F (1945)
Min Temperature 30 °F 32 °F 19 °F (1950)
Degree Days  
Heating Degree Days 20    
Moisture  
Dew Point 38 °F    
Average Humidity 76    
Maximum Humidity 91    
Minimum Humidity 44    
Precipitation  
Precipitation 0.14 in - - ()
Sea Level Pressure  
Sea Level Pressure 30.14 in    
Wind  
Wind Speed 16 mph (WSW)    
Max Wind Speed 25 mph    
Max Gust Speed 34 mph    
Visibility 8 miles    
Events      
Averages and records for this station are not official NWS values.
T = Trace of Precipitation, MM = Missing Value Source: NWS Daily Summary

Daily Weather History Graph

Daily Weather History Graph

Search for Another Location

Airport:

Trip Planner

Search our weather history database for the weather conditions in past years. The results will help you decide how hot, cold, wet, or windy it might be!

Date:

Astronomy

Nov. 12, 2012 Rise Set
Actual Time 7:16 AM EST 5:18 PM EST
Civil Twilight 6:47 AM EST 5:47 PM EST
Nautical Twilight 6:14 AM EST 6:20 PM EST
Astronomical Twilight 5:42 AM EST 6:52 PM EST
Moon 5:40 AM EST (11/12) 4:23 PM EST (11/12)
Length of Visible Light 11h 00m
Length of Day
10h 02m
Waning Crescent, 2% of the Moon is Illuminated
Nov 12
Waning Crescent
Nov 13
New
Nov 20
First Quarter
Nov 28
Full
Dec 6
Last Quarter

Hourly Weather History & Observations

Time (EST) Temp. Windchill Dew Point Humidity Pressure Visibility Wind Dir Wind Speed Gust Speed Precip Events Conditions
12:14 AM 60.4 °F - 38.5 °F 44% 30.10 in 10.0 mi SSW 23.0 mph 34.5 mph N/A   Clear
12:34 AM 60.3 °F - 39.4 °F 46% 30.09 in 10.0 mi SSW 19.6 mph 27.6 mph N/A   Clear
12:54 AM 60.3 °F - 39.9 °F 47% 30.09 in 10.0 mi SSW 20.7 mph 27.6 mph N/A   Clear
1:14 AM 59.7 °F - 40.1 °F 48% 30.10 in 10.0 mi SSW 17.3 mph 25.3 mph N/A   Clear
1:54 AM 59.2 °F - 40.1 °F 49% 30.09 in 10.0 mi SSW 13.8 mph 23.0 mph N/A   Mostly Cloudy
2:14 AM 58.1 °F - 40.3 °F 52% 30.09 in 10.0 mi SSW 13.8 mph 18.4 mph N/A   Scattered Clouds
2:34 AM 59.0 °F - 41.0 °F 51% 30.09 in 10.0 mi SSW 16.1 mph 23.0 mph N/A   Scattered Clouds
2:54 AM 58.5 °F - 41.5 °F 53% 30.08 in 10.0 mi South 16.1 mph 21.9 mph N/A   Scattered Clouds
3:15 AM 58.3 °F - 41.0 °F 53% 30.07 in 10.0 mi South 16.1 mph 24.2 mph N/A   Clear
3:34 AM 57.7 °F - 40.3 °F 52% 30.06 in 10.0 mi South 17.3 mph 21.9 mph N/A   Clear
3:54 AM 57.9 °F - 39.2 °F 50% 30.05 in 10.0 mi South 17.3 mph 27.6 mph N/A   Clear
4:15 AM 58.1 °F - 39.4 °F 50% 30.04 in 10.0 mi South 18.4 mph 23.0 mph N/A   Clear
4:34 AM 58.3 °F - 40.1 °F 51% 30.03 in 10.0 mi South 16.1 mph 19.6 mph N/A   Clear
4:54 AM 58.1 °F - 40.3 °F 52% 30.03 in 10.0 mi South 16.1 mph 21.9 mph N/A   Clear
5:15 AM 57.4 °F - 40.8 °F 54% 30.03 in 10.0 mi South 12.7 mph 20.7 mph N/A   Mostly Cloudy
5:34 AM 57.4 °F - 41.4 °F 55% 30.03 in 10.0 mi South 15.0 mph 19.6 mph N/A   Mostly Cloudy
5:54 AM 57.7 °F - 43.2 °F 58% 30.05 in 7.0 mi SW 15.0 mph - N/A   Overcast
6:15 AM 53.8 °F - 45.5 °F 74% 30.07 in 4.0 mi SW 11.5 mph - 0.03 in   Overcast
6:34 AM 52.9 °F - 46.4 °F 79% 30.05 in 4.0 mi South 10.4 mph - 0.06 in   Overcast
7:54 AM 54.3 °F - 50.0 °F 85% 30.03 in 2.5 mi South 19.6 mph 29.9 mph 0.03 in   Overcast
8:15 AM 54.9 °F - 50.9 °F 86% 30.02 in 3.0 mi South 23.0 mph 29.9 mph 0.01 in   Overcast
8:34 AM 55.8 °F - 51.4 °F 85% 30.02 in 4.0 mi South 21.9 mph 32.2 mph 0.01 in   Overcast
8:54 AM 55.8 °F - 51.3 °F 85% 30.02 in 5.0 mi South 25.3 mph 31.1 mph 0.02 in   Overcast
9:15 AM 55.8 °F - 51.8 °F 87% 30.01 in 2.5 mi South 23.0 mph 33.4 mph N/A   Overcast
9:34 AM 56.5 °F - 51.8 °F 84% 30.02 in 10.0 mi SSW 21.9 mph 33.4 mph 0.01 in   Overcast
9:54 AM 56.5 °F - 51.8 °F 84% 30.01 in 4.0 mi SSW 20.7 mph 32.2 mph 0.01 in   Overcast
10:14 AM 56.3 °F - 52.2 °F 86% 30.01 in 1.8 mi SSW 20.7 mph 33.4 mph N/A   Overcast
10:54 AM 51.3 °F - 48.2 °F 89% 30.05 in 2.5 mi West 12.7 mph 19.6 mph 0.01 in   Overcast
11:14 AM 50.9 °F - 47.8 °F 89% 30.06 in 3.0 mi WNW 17.3 mph - N/A   Overcast
11:34 AM 48.2 °F - 45.5 °F 90% 30.06 in 3.0 mi WNW 11.5 mph - N/A   Overcast
11:54 AM 46.4 °F 40.4 °F 43.0 °F 88% 30.06 in 7.0 mi NW 13.8 mph 20.7 mph N/A   Overcast
12:14 PM 45.3 °F 39.0 °F 41.9 °F 88% 30.08 in 2.5 mi WNW 13.8 mph - N/A   Overcast
12:34 PM 44.8 °F 38.0 °F 41.7 °F 89% 30.09 in 3.0 mi WNW 15.0 mph 19.6 mph N/A   Overcast
12:54 PM 44.1 °F 39.5 °F 41.0 °F 89% 30.08 in 2.0 mi WNW 8.1 mph - N/A   Overcast
1:14 PM 43.7 °F 37.3 °F 40.6 °F 89% 30.09 in 4.0 mi WNW 12.7 mph 17.3 mph N/A   Overcast
1:34 PM 42.3 °F 35.1 °F 38.8 °F 88% 30.09 in 4.0 mi WNW 13.8 mph 23.0 mph N/A   Overcast
1:54 PM 41.9 °F 35.4 °F 39.0 °F 90% 30.10 in 3.0 mi West 11.5 mph - N/A   Overcast
2:14 PM 41.0 °F 33.9 °F 37.8 °F 88% 30.11 in 4.0 mi West 12.7 mph - 0.01 in   Overcast
2:34 PM 38.5 °F 29.2 °F 35.1 °F 87% 30.13 in 4.0 mi WNW 17.3 mph 21.9 mph 0.01 in   Overcast
2:54 PM 35.6 °F 28.6 °F 33.1 °F 91% 30.13 in 7.0 mi West 9.2 mph - 0.01 in   Overcast
3:34 PM 35.8 °F 27.3 °F 32.9 °F 89% 30.16 in 10.0 mi West 12.7 mph 17.3 mph N/A   Overcast
3:54 PM 35.8 °F 27.3 °F 32.4 °F 87% 30.16 in 10.0 mi WNW 12.7 mph - N/A   Overcast
4:14 PM 35.8 °F 27.3 °F 32.0 °F 86% 30.17 in 10.0 mi West 12.7 mph 19.6 mph N/A   Overcast
4:34 PM 35.8 °F 26.5 °F 31.8 °F 86% 30.20 in 10.0 mi West 15.0 mph 19.6 mph N/A   Overcast
4:54 PM 35.8 °F 27.8 °F 31.3 °F 84% 30.21 in 10.0 mi West 11.5 mph - N/A   Overcast
5:34 PM 35.6 °F 28.0 °F 29.7 °F 79% 30.22 in 10.0 mi West 10.4 mph - N/A   Scattered Clouds
5:54 PM 35.1 °F 27.9 °F 29.5 °F 80% 30.23 in 10.0 mi West 9.2 mph - N/A   Scattered Clouds
6:15 PM 34.7 °F 28.1 °F 29.5 °F 81% 30.24 in 10.0 mi West 8.1 mph - N/A   Clear
6:34 PM 34.2 °F 26.8 °F 29.5 °F 83% 30.25 in 10.0 mi West 9.2 mph - N/A   Clear
6:54 PM 33.8 °F 27.7 °F 29.3 °F 84% 30.25 in 10.0 mi West 6.9 mph - N/A   Clear
7:15 PM 33.3 °F 27.9 °F 29.3 °F 85% 30.26 in 10.0 mi West 5.8 mph - N/A   Clear
7:54 PM 32.9 °F 28.5 °F 29.1 °F 86% 30.27 in 10.0 mi WSW 4.6 mph - N/A   Clear
8:14 PM 32.0 °F 27.5 °F 29.1 °F 89% 30.28 in 10.0 mi WSW 4.6 mph - N/A   Clear
8:34 PM 32.0 °F 27.5 °F 28.9 °F 88% 30.29 in 10.0 mi WSW 4.6 mph - N/A   Clear
8:54 PM 32.0 °F 24.8 °F 28.2 °F 86% 30.32 in 10.0 mi West 8.1 mph - N/A   Clear
9:14 PM 32.0 °F 24.2 °F 27.1 °F 82% 30.32 in 10.0 mi West 9.2 mph - N/A   Clear
9:34 PM 32.0 °F 24.8 °F 26.6 °F 80% 30.33 in 10.0 mi West 8.1 mph - N/A   Clear
9:54 PM 32.0 °F 25.6 °F 26.2 °F 79% 30.34 in 10.0 mi West 6.9 mph - N/A   Clear
10:14 PM 32.0 °F 25.6 °F 26.1 °F 79% 30.35 in 10.0 mi West 6.9 mph - N/A   Mostly Cloudy
10:35 PM 32.0 °F 25.6 °F 25.3 °F 76% 30.35 in 10.0 mi West 6.9 mph - N/A   Mostly Cloudy
10:54 PM 31.3 °F 27.9 °F 25.5 °F 79% 30.35 in 10.0 mi WSW 3.5 mph - N/A   Scattered Clouds
11:14 PM 31.1 °F 26.4 °F 25.5 °F 80% 30.35 in 10.0 mi WSW 4.6 mph - N/A   Clear
11:35 PM 30.7 °F 26.0 °F 25.3 °F 80% 30.36 in 10.0 mi SW 4.6 mph - N/A   Clear
11:54 PM 30.2 °F 24.3 °F 25.5 °F 83% 30.36 in 10.0 mi SW 5.8 mph - N/A   Clear